RH
8 11 15 16 19 20 19 19 18 20 20 21 21 20 20 19 19 19 19 21 21 21 21 20 19 18 19 18 18 17 14 15 19 21 22 25 24 23 22 20 19 18 16 15 15 12 10 9 10 12 11 13 18 20 23 23 24 20 18 19 17 18 19 18 16 17 18 18 21 21 25 27 23 26 26 26 30 27 23 24 23 23 23 23 24 26 27 28
11 14 17 19 20 20 19 18 19 20 20 21 20 20 19 19 18 18 19 20 19 20 22 22 20 20 20 18 18 17 15 15 19 21 22 24 23 22 21 21 20 18 17 17 18 17 12 10 13 13 9 12 18 21 22 23 24 20 20 18 15 18 18 18 18 19 21 22 23 22 27 28 26 27 26 24 24 24 27 27 26 25 24 24 26 28 28 29
14 17 19 20 20 19 18 18 19 20 20 20 19 19 18 18 17 17 19 19 19 21 23 22 21 21 20 18 18 17 17 16 17 19 21 23 22 21 21 21 21 20 18 18 19 19 16 14 15 14 9 12 18 20 20 24 26 23 22 17 18 23 19 20 22 23 25 26 25 24 28 28 27 28 26 27 27 27 31 31 31 30 28 27 27 29 30 30
17 19 20 20 19 18 18 18 20 19 19 19 19 19 18 18 17 17 19 19 19 22 23 22 21 19 18 19 19 19 21 17 17 20 20 22 22 20 19 20 22 20 18 19 19 18 17 16 14 15 13 15 20 20 19 24 27 24 22 18 22 25 21 23 25 27 29 29 29 26 27 27 26 30 27 27 30 32 31 30 33 33 30 30 31 32 34 33
19 20 20 20 18 18 18 19 19 19 19 18 19 18 19 18 17 17 19 18 20 23 23 22 20 18 17 18 18 21 22 17 18 20 21 22 22 20 19 20 21 20 19 19 19 18 16 15 14 16 15 15 19 19 20 26 28 25 23 23 25 24 21 25 27 33 34 31 31 28 28 28 27 29 27 28 34 34 31 30 32 31 31 33 34 36 37 37
20 20 20 18 17 17 18 18 18 19 18 18 19 19 19 17 17 17 18 19 22 25 22 21 21 18 17 18 18 20 20 18 21 21 21 22 21 20 19 20 20 19 19 18 19 18 16 14 12 17 16 16 20 20 24 29 29 24 23 26 28 25 24 27 28 36 38 31 29 29 31 30 29 30 27 28 33 31 29 30 31 31 33 35 36 37 38 39
20 19 19 17 17 17 17 18 18 18 18 20 20 18 18 17 17 17 18 21 24 26 22 20 21 19 18 18 19 20 20 21 21 20 20 21 20 19 19 20 20 18 18 19 19 16 17 14 13 20 19 20 24 25 30 32 29 27 25 27 32 31 29 29 30 35 37 30 28 31 32 31 30 32 29 29 30 29 28 29 30 31 32 32 34 36 38 40
20 18 18 16 16 17 17 18 17 18 20 21 20 18 17 16 17 18 20 22 25 26 23 20 19 20 19 18 21 20 20 21 19 19 20 19 19 18 19 20 19 20 21 24 22 18 20 18 19 24 21 23 25 28 36 32 29 32 31 30 33 34 31 29 28 30 32 29 30 31 29 29 30 29 29 31 29 28 27 27 28 27 27 27 29 32 35 38
18 17 16 16 16 17 17 17 19 20 20 21 18 17 17 17 17 19 21 22 24 25 23 20 16 19 17 18 24 19 18 21 18 20 21 19 18 18 19 20 20 20 23 27 26 21 19 22 23 21 20 25 26 33 39 30 28 35 36 36 32 31 29 25 24 27 30 29 29 28 27 29 29 28 30 31 30 28 26 25 25 24 24 25 25 28 29 32
17 16 16 16 16 17 18 18 20 20 20 20 17 16 16 17 17 20 21 20 22 23 23 20 15 15 14 18 22 17 18 20 18 21 22 19 18 19 19 19 20 19 22 26 28 25 21 23 23 20 23 28 30 37 39 33 36 38 39 40 32 29 27 22 23 27 30 30 31 28 28 29 27 30 33 31 30 28 26 25 25 24 24 24 23 24 26 28
16 16 15 15 16 17 18 19 21 21 20 20 19 17 16 17 18 20 20 20 22 22 22 21 16 15 14 15 16 16 19 19 18 21 22 19 18 20 19 19 19 19 21 24 29 31 26 24 24 25 28 29 31 38 40 40 44 40 36 35 29 25 23 21 23 27 28 26 30 29 27 30 29 34 37 33 30 27 26 26 25 25 24 24 23 22 25 27
16 16 15 15 16 17 18 19 21 20 20 21 20 20 18 18 18 19 20 21 22 22 22 20 17 17 17 16 16 18 20 18 18 20 23 21 19 22 21 20 20 20 21 23 29 31 27 26 24 25 30 31 31 35 38 41 43 37 29 25 22 22 21 21 22 26 26 21 29 29 24 33 36 37 37 31 29 27 24 25 24 25 25 24 24 23 26 28
16 15 15 15 18 18 19 20 21 21 21 22 21 21 19 17 18 19 20 20 19 19 20 19 16 15 18 20 18 18 19 18 17 17 22 23 22 23 23 22 21 21 23 24 29 28 25 24 22 27 34 32 30 34 35 35 38 34 31 27 20 19 18 22 25 25 23 22 29 27 20 34 41 35 34 30 29 27 24 25 24 24 24 24 25 24 26 29
15 15 15 16 19 20 20 21 21 22 21 22 21 20 18 18 18 18 20 21 19 16 17 19 16 14 19 21 18 17 17 17 16 16 21 24 23 23 23 23 21 22 24 25 27 25 22 19 22 31 37 35 35 36 31 28 30 30 33 30 20 17 15 23 31 26 22 23 27 25 20 33 41 34 32 30 28 27 25 25 24 23 24 23 24 25 26 28
15 15 15 18 20 20 22 21 21 21 21 20 19 18 18 18 19 19 19 21 19 15 15 18 15 16 19 18 16 16 16 17 17 18 21 25 24 23 24 23 23 23 22 23 22 22 21 19 21 27 31 37 36 30 24 21 24 26 26 21 18 20 17 24 36 34 27 26 25 22 21 32 40 35 31 29 27 26 26 25 24 24 24 23 23 23 25 26
14 15 17 19 20 20 21 21 20 19 19 18 17 18 18 18 20 20 19 20 19 14 14 16 14 15 17 15 15 15 16 19 18 17 21 25 24 24 26 24 24 24 21 22 21 20 20 20 28 31 28 31 30 23 18 17 20 23 23 19 22 26 22 23 34 38 32 28 27 24 26 35 38 34 30 28 27 26 26 27 26 25 24 23 22 22 23 23
14 16 18 20 20 19 19 19 19 18 16 15 14 15 14 16 17 18 18 19 18 14 14 16 15 16 18 15 15 15 18 19 16 17 20 24 24 23 24 24 25 25 23 22 20 19 19 22 29 29 24 25 27 23 18 19 20 21 25 26 27 32 31 24 27 35 32 30 33 30 33 40 37 34 31 28 28 27 28 28 26 25 25 24 23 22 22 22
15 17 20 21 20 20 19 18 18 16 15 15 14 15 14 14 13 14 17 16 16 16 14 16 16 18 18 16 17 19 20 20 16 17 19 22 24 21 22 25 25 24 23 20 17 19 21 21 20 19 19 23 30 27 19 22 26 27 32 30 29 33 32 24 25 34 35 33 36 33 35 40 37 34 31 29 28 27 28 27 26 26 25 25 25 24 23 24
16 21 21 20 18 19 19 19 17 15 16 16 16 18 15 13 12 12 15 16 18 19 18 23 25 22 18 16 18 19 21 21 16 15 18 22 22 20 21 23 24 25 25 19 15 23 28 23 20 21 23 28 36 37 29 29 33 37 42 40 38 36 31 24 25 38 42 37 36 36 36 38 38 35 32 31 28 27 27 26 26 26 25 25 25 26 26 26
19 21 19 19 18 17 17 18 16 15 17 16 17 18 17 20 19 18 23 26 29 29 28 33 32 24 19 18 19 19 20 17 13 15 18 22 23 20 18 22 25 24 31 33 24 27 33 28 27 30 31 34 40 44 44 44 47 49 48 48 43 36 32 26 26 40 45 36 34 40 40 38 40 37 34 31 28 28 28 27 28 27 26 26 27 28 28 27
20 19 18 19 18 16 15 15 15 15 17 15 16 21 25 29 25 20 28 34 35 33 30 32 30 22 20 21 21 23 23 16 12 14 15 21 23 16 15 26 27 20 33 53 44 31 31 28 32 39 40 44 47 51 52 51 56 55 46 41 34 28 27 22 26 38 41 35 34 40 42 41 42 39 36 33 30 31 30 30 30 28 27 27 27 30 28 27
19 18 17 17 17 16 14 14 14 14 15 14 18 27 31 31 24 18 24 28 27 29 31 29 24 20 21 21 21 24 24 18 13 12 16 20 19 18 21 26 29 28 37 47 35 22 24 28 36 45 47 51 54 55 54 48 50 48 36 31 27 24 25 25 33 41 37 34 35 41 42 39 40 41 37 34 32 34 33 32 32 29 30 29 28 30 29 28
18 18 16 16 16 15 15 16 14 13 14 14 22 33 34 31 25 19 21 21 19 26 35 30 19 17 19 17 19 21 18 18 17 13 18 21 21 30 32 24 28 35 37 33 21 15 19 26 38 50 51 45 40 42 45 39 35 33 26 24 25 25 28 29 35 40 37 37 38 44 44 39 42 44 40 38 35 34 33 32 32 30 30 31 29 29 30 30
18 18 17 17 15 15 17 17 16 17 17 19 24 30 31 30 27 21 24 26 20 22 28 26 20 18 19 18 19 21 17 19 20 15 19 24 26 32 34 33 32 28 37 47 37 23 25 35 46 50 43 31 26 30 36 31 24 25 24 24 26 27 30 29 31 35 37 44 49 48 38 34 45 49 43 40 37 36 35 32 32 31 30 31 30 30 30 29
18 17 16 16 15 15 15 16 22 22 20 23 27 29 29 30 29 23 25 28 20 18 22 22 19 16 18 19 18 25 25 19 18 18 22 26 29 32 35 41 33 21 38 56 43 23 26 44 50 43 34 27 23 26 35 35 25 22 24 25 26 28 32 32 34 35 27 30 44 44 28 23 39 48 43 40 39 37 37 36 34 32 31 33 32 31 30 29
17 16 16 16 14 14 15 19 25 23 24 28 27 29 29 30 31 22 24 28 17 16 21 18 15 14 17 18 23 34 30 17 15 18 22 26 32 34 29 32 30 28 43 49 36 23 25 39 45 38 32 26 21 23 35 40 28 20 21 27 32 35 36 34 35 36 22 18 33 41 30 21 30 39 40 42 42 39 38 38 37 33 33 34 34 33 31 30
17 17 17 16 15 14 16 22 22 24 30 30 25 27 27 29 29 20 24 28 17 16 20 18 14 13 17 21 25 28 20 16 17 15 19 24 31 32 24 25 27 32 49 45 26 23 27 31 37 34 25 19 18 21 33 39 30 22 23 31 38 37 35 35 36 34 28 26 32 38 35 25 22 30 44 48 43 42 41 39 38 36 35 35 35 35 32 30
18 18 17 16 16 14 17 20 20 26 28 23 22 26 29 32 28 25 28 23 14 16 19 20 15 12 21 25 24 26 26 28 21 13 19 22 25 29 23 27 27 27 47 41 16 22 32 27 33 34 20 16 19 23 35 41 30 22 26 34 39 38 37 39 38 34 35 33 24 23 28 25 19 26 49 54 43 44 46 43 41 38 37 37 36 36 33 30
18 18 16 16 16 16 18 17 18 23 22 19 22 27 32 30 24 30 32 17 11 16 17 19 15 17 31 33 30 35 35 34 27 21 24 21 22 25 22 31 35 31 43 37 17 22 30 32 42 40 22 19 23 26 37 40 28 25 35 38 37 38 39 40 36 32 36 30 15 14 19 23 24 21 34 45 42 46 49 43 40 39 37 37 37 38 35 32
18 17 16 16 16 16 17 17 20 21 20 21 24 29 31 25 25 32 29 16 13 21 26 25 23 28 38 35 31 34 33 34 37 35 33 28 26 28 29 36 36 27 29 31 24 23 32 48 58 48 32 31 32 33 41 41 32 34 37 31 26 26 27 33 30 23 26 22 14 15 16 25 36 25 25 41 48 51 51 44 41 39 36 35 38 40 37 33
16 15 15 15 16 18 19 23 25 21 23 23 24 30 26 24 32 30 23 19 18 26 31 31 35 38 37 31 26 29 34 37 37 35 34 32 31 32 31 34 31 21 18 23 24 23 29 37 41 44 44 42 39 37 42 44 37 32 26 19 19 19 19 24 21 18 23 22 16 14 16 30 40 33 34 48 53 51 50 46 43 39 36 37 39 37 35 34
14 14 14 14 16 18 20 26 26 22 24 22 25 35 31 27 29 23 24 24 17 22 26 29 40 40 35 32 26 26 31 31 30 32 32 30 35 38 36 36 35 23 16 21 24 20 20 19 20 34 42 39 33 25 28 35 29 23 21 21 25 25 26 27 23 25 27 24 20 14 21 35 32 30 41 48 47 46 44 43 41 39 39 39 36 35 35 33
13 13 13 15 17 20 25 29 28 27 26 20 27 41 36 25 20 21 31 26 16 24 33 38 43 37 30 26 22 25 27 24 26 29 30 29 32 37 38 41 41 28 17 21 24 20 19 19 20 26 31 33 29 19 21 26 24 24 23 26 32 35 47 48 34 33 33 27 23 16 28 39 25 28 45 43 41 43 40 39 37 35 37 36 34 34 34 30
12 12 12 14 18 25 32 32 28 26 22 20 33 43 31 19 19 24 31 28 25 33 41 44 38 28 24 20 21 27 24 21 24 23 25 26 27 31 33 37 42 38 29 23 25 27 23 19 20 22 23 25 26 28 32 29 27 29 23 25 34 37 51 56 41 40 44 37 32 28 35 36 27 38 49 41 40 41 36 34 31 28 29 31 32 31 29 27
11 11 12 14 17 22 27 29 26 20 15 19 32 36 25 19 22 23 26 30 36 40 41 39 28 18 19 20 26 30 23 22 23 19 22 26 28 32 35 38 42 46 41 28 26 30 24 17 21 29 29 24 25 33 40 33 25 28 24 27 36 34 39 48 39 37 46 50 46 39 33 24 27 46 50 42 42 37 32 31 27 25 24 24 27 27 27 27
15 12 13 15 17 19 22 23 20 18 19 21 26 30 28 26 23 24 32 39 44 46 40 28 19 18 20 20 25 29 26 26 24 19 20 28 33 34 37 43 45 50 48 36 30 30 23 17 22 31 29 26 29 34 40 36 23 22 29 33 35 34 37 46 46 38 44 55 48 34 31 24 26 44 50 45 40 32 31 31 27 26 24 22 25 28 28 27
18 13 14 15 17 18 18 17 14 17 22 24 29 32 32 33 28 29 43 52 53 50 34 18 15 21 27 23 21 28 29 25 25 20 15 23 31 34 39 44 46 51 54 46 36 33 32 26 24 27 25 27 37 37 38 43 33 24 31 35 33 33 35 42 53 54 53 56 44 31 41 41 32 41 47 42 38 35 34 32 28 26 24 24 26 27 28 27
17 15 18 15 15 17 16 14 14 18 24 34 45 41 34 38 39 38 50 60 59 46 26 17 17 21 29 26 22 33 35 26 24 23 18 19 24 33 41 44 46 51 57 54 40 36 41 32 24 29 28 27 32 31 28 38 42 33 32 36 35 41 46 44 54 63 61 65 59 44 47 46 35 37 43 40 39 38 34 31 28 24 24 27 28 27 27 25
14 23 26 15 13 16 15 12 14 21 25 36 47 41 34 43 50 59 68 63 53 41 26 24 26 23 27 28 26 35 40 34 29 25 22 20 24 38 47 46 48 51 54 52 43 42 43 30 22 27 29 23 21 21 22 29 39 37 34 37 38 43 49 48 53 58 58 66 71 63 56 45 34 36 43 43 39 36 33 31 27 24 26 28 27 27 25 24
16 27 23 10 11 15 12 14 22 31 34 40 46 41 40 48 58 79 94 77 53 39 30 31 32 25 26 30 30 35 42 42 37 29 24 21 24 41 56 61 61 60 58 52 48 49 42 29 24 22 22 20 17 23 27 27 33 36 37 45 49 46 45 51 57 56 58 67 74 79 72 46 32 39 43 38 33 31 30 29 26 27 29 28 25 23 23 26
26 34 19 9 11 11 13 25 41 48 44 43 43 42 49 53 51 70 97 96 71 49 38 38 35 30 30 31 31 38 44 42 40 34 26 24 25 33 59 81 83 78 66 47 44 52 44 34 35 29 21 16 18 33 40 35 33 34 38 46 52 53 55 68 72 57 58 70 73 83 82 53 37 40 34 29 29 26 24 26 30 29 27 26 24 23 25 28
37 35 16 11 11 10 19 38 55 56 47 42 41 48 64 60 43 49 76 86 72 53 43 40 41 40 37 34 37 45 45 37 36 33 26 29 33 37 63 92 97 92 77 48 44 58 51 41 42 34 21 17 28 43 44 38 34 34 42 46 48 55 58 71 81 67 65 73 64 69 75 54 39 36 28 25 26 22 24 29 31 28 24 24 24 25 28 29
41 26 10 12 10 10 21 36 49 52 49 50 48 52 62 57 41 40 55 63 55 46 40 37 39 39 37 42 46 43 39 34 30 28 27 30 39 53 79 98 95 87 73 50 48 60 52 42 42 31 17 19 36 47 44 43 41 38 45 47 48 57 60 63 71 72 80 81 64 69 78 55 34 30 27 24 21 22 28 29 26 24 24 25 26 28 30 30
36 24 19 15 5 9 23 29 39 47 47 45 39 40 48 50 47 42 42 50 51 44 37 34 37 38 41 52 51 40 37 31 23 27 33 31 41 70 96 100 92 83 72 63 68 69 49 33 33 31 26 26 32 35 37 41 38 34 41 50 54 63 71 70 67 73 86 76 59 76 86 56 29 26 26 22 21 25 30 27 25 24 24 25 27 28 30 30
34 31 30 20 10 20 35 36 39 47 49 42 33 34 39 41 52 59 50 50 59 55 38 32 40 46 49 52 49 45 39 27 20 30 38 33 39 67 93 98 92 89 88 90 94 82 56 36 30 32 37 38 34 33 32 32 36 37 42 52 61 68 75 72 69 78 86 72 64 79 80 53 32 29 27 23 27 33 31 26 26 25 25 26 26 28 30 31
34 29 30 29 29 37 45 47 46 42 43 44 35 33 34 29 40 62 59 47 55 61 46 39 46 45 42 44 43 42 36 28 30 36 39 36 33 51 87 103 93 85 92 100 95 76 60 48 37 34 39 40 37 35 32 35 45 49 48 54 64 72 74 72 77 83 79 79 81 74 63 55 44 32 27 29 35 37 31 26 26 26 27 27 26 28 31 32
34 30 32 34 32 35 40 45 48 40 36 38 32 29 34 31 27 40 47 43 50 58 47 41 45 38 34 40 37 34 33 29 31 37 42 44 39 45 73 90 81 76 86 91 76 55 45 42 41 49 53 46 42 43 40 44 49 47 50 58 64 71 74 78 88 83 73 88 91 61 47 56 48 31 30 36 38 35 30 28 29 28 30 29 28 31 33 33
35 32 35 36 31 33 35 36 47 52 45 42 43 39 39 38 30 29 36 38 44 48 37 28 37 43 47 48 35 28 33 28 28 42 49 51 54 51 54 64 65 66 70 68 60 51 40 36 51 71 69 53 47 46 40 41 42 40 48 55 58 69 79 86 88 73 64 80 78 50 41 48 39 31 34 37 35 31 30 31 30 30 32 32 32 34 35 37
35 29 35 44 42 44 48 45 50 55 50 49 49 43 39 34 28 34 44 37 29 34 31 20 26 45 61 63 43 29 35 34 35 50 53 54 64 59 48 53 57 57 57 57 66 68 47 37 59 80 75 59 48 41 36 36 39 43 51 57 59 66 72 74 70 56 50 55 49 38 40 40 33 33 36 35 31 30 30 32 33 34 35 35 35 36 38 42
34 29 34 41 42 50 59 56 50 44 43 48 41 37 45 39 28 39 50 38 21 25 33 28 30 50 68 71 54 35 36 37 38 48 51 51 61 58 50 55 58 62 64 64 74 75 50 43 68 84 76 58 42 35 33 32 38 47 53 58 60 58 56 57 55 49 50 50 41 39 46 43 35 32 33 31 29 32 34 35 37 36 35 36 37 39 44 48
28 26 29 30 33 45 49 46 49 41 31 34 34 37 45 40 37 44 41 38 37 33 35 37 40 56 69 68 58 46 44 46 47 54 56 53 58 58 54 61 69 74 78 80 84 81 62 54 69 82 75 49 29 28 29 30 45 63 69 63 54 50 50 49 46 44 46 48 47 50 53 47 38 34 34 32 32 35 38 38 39 38 36 38 41 44 48 50
24 21 27 32 33 42 47 41 43 39 28 33 45 51 48 45 57 55 32 39 61 62 57 54 47 51 53 47 47 52 57 64 70 75 74 68 68 70 68 71 76 80 89 90 83 82 82 69 63 78 77 46 26 29 30 31 43 59 69 62 47 44 45 39 36 33 30 36 47 52 48 40 37 37 37 36 37 39 40 40 40 40 39 39 42 47 49 48
Wind_Speed
5 6 7 7 7 7 7 7 7 8 7 7 7 8 9 10 8 8 9 9 9 9 8 9 8 8 8 7 7 7 10 17 19 20 16 11 15 16 14 13 11 12 11 9 10 6 2 2 4 4 2 2 1 0 0 2 1 3 2 3 4 3 2 3 3 3 4 7 8 7 6 8 10 6 6 4 3 5 10 11 11 9 10 17 22 24 24 23
6 7 7 7 6 6 7 7 7 7 7 6 7 7 9 9 7 7 8 7 7 7 7 7 5 4 5 5 4 5 5 9 13 16 15 15 18 17 14 13 13 13 10 8 9 6 4 4 5 5 1 1 1 0 1 1 2 2 1 3 3 3 3 4 6 5 4 7 10 7 3 5 8 7 7 8 8 11 15 17 18 16 17 20 23 26 26 25
7 7 7 6 6 6 6 7 7 7 6 6 7 7 8 8 6 6 6 5 5 7 7 8 6 2 1 3 5 7 7 1 7 12 15 18 18 18 16 14 14 15 9 7 7 5 4 4 4 4 1 1 2 1 0 1 2 0 1 4 2 4 2 5 6 5 4 5 9 8 4 3 5 5 6 9 11 15 18 16 17 17 18 19 21 24 25 25
8 7 7 6 6 6 6 6 7 6 6 6 7 7 7 6 5 6 5 4 5 8 9 9 7 3 1 2 6 8 8 3 5 10 15 19 19 19 19 15 15 15 8 5 6 4 3 2 3 3 1 1 2 0 0 2 2 1 1 3 3 3 2 6 6 5 4 4 7 9 5 3 4 5 9 13 11 12 15 14 15 15 16 17 17 21 23 24
8 7 6 6 6 6 6 6 6 6 6 6 7 6 6 4 6 7 4 4 6 9 10 10 7 6 8 5 4 10 8 2 5 12 17 19 19 20 19 15 15 13 7 5 6 4 3 2 1 1 1 1 1 0 1 3 2 1 1 2 3 2 4 6 5 5 5 4 5 7 5 5 4 8 13 16 12 9 11 12 13 12 14 15 15 18 21 23
8 7 6 6 6 6 6 6 6 6 6 7 6 5 4 5 8 7 4 5 8 9 10 11 5 9 14 14 8 8 5 2 6 15 19 19 19 19 17 14 14 11 7 6 5 3 2 2 0 1 1 2 1 1 1 2 1 2 2 4 3 2 4 6 6 5 4 3 6 7 4 3 6 13 14 16 14 10 11 11 11 11 12 14 15 18 20 21
7 6 6 6 6 6 6 5 5 6 6 7 5 4 5 7 8 6 5 6 8 9 10 13 7 6 8 11 13 11 6 4 10 18 20 18 17 16 12 12 11 9 9 8 6 3 3 4 3 1 0 2 1 1 2 0 1 2 0 4 3 1 3 6 5 2 3 3 8 6 2 5 11 13 12 15 14 11 10 10 10 10 11 14 17 18 19 21
7 7 6 6 6 6 5 5 5 6 7 6 5 5 6 7 7 6 6 6 8 10 11 14 10 2 2 2 4 9 9 7 16 22 20 16 14 11 8 9 10 10 12 12 8 2 2 4 4 1 1 3 0 1 2 1 1 1 1 4 2 1 3 5 2 1 3 2 6 5 7 12 11 12 15 15 12 11 10 9 10 10 12 15 18 19 19 20
7 7 6 6 6 5 5 5 6 7 6 6 5 5 6 6 6 5 6 6 7 10 10 14 14 5 2 1 1 6 7 9 19 23 18 14 10 7 6 7 10 12 12 13 11 5 2 2 2 1 1 4 1 1 1 2 1 1 2 3 3 2 4 6 3 4 5 2 7 9 13 14 6 7 13 14 11 9 9 9 10 11 14 16 16 18 19 19
7 7 6 5 5 5 6 6 7 6 6 6 5 5 5 5 4 4 5 6 7 10 10 11 16 16 9 2 3 7 6 10 20 21 15 11 6 5 6 7 10 12 10 10 12 8 4 2 1 1 2 3 1 1 2 3 2 2 3 2 3 2 2 6 4 5 4 1 7 11 14 12 5 4 8 11 12 9 9 11 12 13 15 16 15 16 18 20
7 6 5 5 5 6 6 6 6 5 5 5 4 3 3 3 3 3 4 7 8 9 10 8 11 18 17 9 9 8 6 11 22 22 14 9 6 7 9 9 9 10 8 8 10 8 5 4 2 1 1 1 1 1 2 2 1 1 3 1 3 2 3 6 4 5 4 1 5 8 11 14 10 8 9 11 11 8 9 12 13 14 14 15 15 15 16 19
6 5 5 5 5 6 5 5 5 5 5 5 5 4 2 2 2 3 5 9 10 8 9 8 6 7 9 10 11 6 6 14 23 22 17 11 8 10 11 8 8 9 8 7 8 9 7 4 3 5 3 1 1 1 2 1 0 0 3 1 3 4 3 7 6 4 4 3 6 4 6 11 12 10 11 11 10 8 9 12 13 13 12 12 13 13 14 17
5 5 5 5 5 5 5 5 5 5 5 5 5 3 2 2 2 3 6 9 11 9 7 8 7 5 4 5 7 8 9 16 25 21 16 14 9 10 10 7 7 9 9 9 9 9 10 6 5 6 3 0 2 1 2 0 1 2 1 1 2 3 1 7 6 6 4 2 9 4 3 6 10 10 11 11 10 8 9 13 13 11 11 11 11 11 12 16
5 5 5 5 5 5 5 4 5 6 6 6 4 3 3 3 3 4 6 8 11 10 6 7 7 5 6 4 3 12 14 17 28 25 18 15 10 8 10 8 7 9 9 11 10 9 10 9 6 5 2 2 3 2 2 1 0 0 1 0 2 2 4 8 5 8 6 2 9 8 3 3 7 9 11 10 10 9 11 12 12 12 11 10 11 11 11 14
5 5 5 5 5 6 5 5 6 7 7 6 4 4 3 3 4 3 4 6 11 11 6 6 8 4 5 4 2 15 19 19 28 29 20 15 13 8 8 9 9 9 9 9 9 8 8 7 6 3 2 1 3 2 1 1 2 3 3 2 4 4 6 6 4 7 8 4 10 9 3 3 6 8 9 9 9 9 10 11 12 12 12 12 11 11 11 12
5 5 5 5 5 5 4 5 6 8 10 11 12 10 6 3 1 1 4 4 8 14 10 7 8 4 5 4 7 13 16 18 24 27 19 13 14 9 4 7 8 7 8 9 7 6 6 5 3 1 1 2 1 2 1 2 4 5 5 4 5 5 8 6 3 5 7 6 8 8 2 1 3 7 7 8 9 8 9 11 12 12 12 12 10 11 11 11
5 5 5 5 5 4 2 3 5 9 16 21 23 22 20 15 5 1 2 3 5 9 11 12 9 2 6 8 9 10 12 14 21 28 21 10 12 11 4 3 3 2 3 6 7 4 5 3 1 1 3 6 6 5 3 6 7 5 5 3 3 4 7 6 2 4 8 8 6 6 3 2 2 5 6 8 9 9 10 10 11 10 10 11 10 11 12 12
5 5 6 6 5 4 3 3 6 11 16 17 16 18 23 26 23 16 10 6 3 3 6 15 12 3 5 11 8 9 14 13 18 26 22 10 8 12 10 5 2 2 3 1 6 5 4 1 1 2 6 8 8 7 7 6 6 5 6 5 3 5 6 8 8 6 8 7 3 2 2 4 3 3 4 7 8 9 10 9 9 9 10 10 10 11 12 13
5 6 7 8 8 7 5 5 8 12 11 7 7 7 8 13 21 26 25 19 10 5 4 9 9 3 2 8 9 13 13 9 13 23 24 15 6 7 10 8 2 2 1 0 6 7 3 2 3 6 8 8 7 7 6 3 5 6 6 5 6 7 6 10 10 5 6 7 3 1 1 4 3 2 4 5 6 8 9 8 8 9 10 10 11 11 11 12
7 8 9 11 12 12 10 8 9 10 4 1 4 6 3 1 5 11 17 18 10 6 5 2 3 2 1 5 11 17 10 5 8 21 28 19 6 3 7 6 1 4 5 1 4 4 2 5 7 6 6 6 5 3 2 2 3 5 5 4 7 8 7 11 8 3 4 7 3 2 2 4 3 2 3 4 4 7 9 10 11 10 10 10 11 11 11 12
8 9 11 13 15 15 13 9 7 5 0 2 1 3 2 0 3 3 3 6 4 4 6 2 1 1 3 4 10 16 6 4 5 19 31 21 5 3 6 6 2 5 5 2 2 2 2 8 6 4 4 4 4 1 2 2 2 3 3 4 7 6 8 13 8 3 4 7 3 4 5 5 4 2 2 3 4 7 10 11 11 11 11 10 11 12 13 12
8 9 10 12 14 15 14 11 9 8 7 8 9 8 4 2 6 7 3 5 4 4 3 1 3 4 3 2 10 15 3 2 9 19 32 23 8 5 4 5 6 5 4 2 1 1 6 8 4 4 2 1 1 1 3 3 3 2 2 4 6 7 10 10 2 6 2 6 3 4 5 5 6 4 2 3 4 6 7 8 9 10 11 11 12 13 14 15
8 7 7 8 10 11 11 11 11 12 15 15 12 8 5 6 8 7 3 5 3 2 1 2 4 7 6 2 13 16 5 7 8 16 29 21 8 5 3 6 7 3 5 6 5 5 6 5 4 3 0 1 1 1 4 4 1 0 3 5 7 8 9 6 1 1 5 7 4 4 6 6 7 6 4 3 3 4 4 5 7 8 10 11 13 13 14 17
7 6 5 5 6 7 6 7 9 13 17 17 15 9 6 5 4 4 2 2 2 1 1 1 2 5 6 4 15 13 6 6 4 11 23 17 6 2 2 5 4 4 6 6 5 6 6 3 2 1 1 2 2 3 6 6 5 2 2 6 9 10 10 10 9 10 8 3 3 5 7 6 8 10 7 6 4 2 3 5 7 9 10 11 12 13 14 15
7 6 5 5 6 8 4 4 8 10 13 12 11 8 5 3 2 2 2 1 2 1 1 1 1 6 5 6 15 9 2 3 3 7 15 13 6 2 1 1 2 6 5 3 2 4 5 2 1 1 1 2 3 4 6 6 6 3 1 5 10 13 14 15 12 11 7 1 2 2 7 5 6 12 9 6 5 2 3 5 9 10 10 11 12 13 13 14
7 5 6 7 8 9 3 3 6 7 7 7 6 3 3 3 2 3 2 1 3 3 4 4 3 9 9 8 13 4 3 4 4 6 12 12 6 1 1 1 1 5 2 1 1 1 2 1 2 1 2 4 6 6 4 4 6 5 3 4 10 12 14 15 11 6 6 5 1 1 6 7 2 8 10 8 6 3 4 7 9 10 11 11 11 11 13 13
5 3 5 8 11 10 4 2 5 5 3 3 3 2 2 1 3 4 1 2 4 3 5 6 4 9 11 10 12 3 2 6 5 6 13 14 7 2 1 3 1 3 1 1 1 1 1 1 2 3 5 8 9 7 4 4 5 5 5 6 12 13 13 12 7 4 4 6 3 3 3 8 7 2 7 8 5 3 4 9 10 11 11 12 11 12 12 13
3 1 4 8 10 12 8 4 4 4 2 1 1 2 2 2 3 2 0 2 3 3 2 3 4 7 8 9 11 5 2 6 4 7 14 13 8 2 2 4 0 1 2 2 2 2 1 3 5 5 8 9 8 7 4 3 3 6 9 11 12 11 9 7 4 5 3 3 3 1 1 7 9 4 4 7 4 1 5 9 10 11 12 13 14 14 12 12
3 2 4 6 7 10 9 6 5 4 2 2 1 1 1 2 2 1 2 3 2 2 1 2 5 7 8 6 6 5 2 3 3 7 13 10 10 4 3 3 1 2 2 2 3 2 0 2 2 2 6 7 9 7 2 1 3 8 12 12 11 7 4 3 3 4 3 2 5 1 0 6 10 8 2 4 3 2 5 7 9 11 13 14 14 14 12 11
5 4 5 6 5 6 6 4 5 3 1 1 1 1 0 1 1 1 4 2 2 2 0 2 4 4 7 6 4 5 4 3 2 5 5 3 8 8 4 1 1 4 1 1 4 3 1 1 0 1 4 3 7 6 1 1 5 9 10 11 8 4 3 2 2 3 3 4 6 2 2 5 9 8 3 2 4 3 4 6 8 11 14 14 12 11 11 10
7 6 6 7 5 5 4 2 2 1 1 1 2 1 1 1 2 3 4 1 2 3 2 3 3 2 7 6 3 6 4 2 4 6 5 2 7 13 7 2 2 1 2 4 6 5 1 2 1 0 1 1 4 4 2 2 5 6 8 10 8 3 1 1 1 2 4 7 9 8 6 6 8 5 3 5 6 5 3 8 10 14 15 14 12 12 12 11
9 8 7 7 5 4 3 0 1 1 2 2 2 1 1 2 4 3 1 3 2 2 2 2 3 4 5 2 2 6 4 3 5 5 5 4 6 9 8 5 4 3 6 5 5 6 1 2 1 1 1 1 4 4 1 2 3 7 8 9 9 7 5 5 6 6 6 8 12 15 14 8 8 4 5 7 6 4 3 7 9 13 14 14 15 15 12 11
13 11 8 9 7 5 4 1 2 2 3 2 2 2 3 4 3 1 2 3 2 2 1 1 3 5 5 3 3 5 2 2 5 2 1 1 3 4 4 6 4 2 4 4 5 6 2 2 2 2 1 1 4 6 4 3 5 8 9 9 8 7 6 6 7 7 8 11 15 19 15 8 8 4 5 7 5 2 3 7 9 12 14 15 15 13 11 12
17 15 12 13 12 10 7 4 4 4 4 4 2 4 7 5 1 1 2 2 1 3 2 1 5 4 2 1 3 4 1 1 4 3 2 2 3 4 4 8 9 3 2 2 2 5 5 1 3 4 2 3 6 6 4 5 3 5 5 5 5 5 4 5 6 8 10 12 17 17 9 6 8 3 5 5 3 2 6 8 11 14 16 16 14 12 13 14
16 18 18 19 17 13 9 5 4 4 3 4 4 5 6 3 2 2 1 2 1 3 2 0 3 3 0 1 1 1 0 1 3 2 4 4 4 4 3 5 9 6 2 2 1 2 5 3 2 2 2 4 8 2 2 4 1 2 2 2 5 5 4 5 8 11 12 12 12 9 5 6 5 4 6 3 2 5 9 12 17 19 20 20 18 16 16 16
9 15 20 23 21 16 9 4 2 2 1 4 7 5 2 1 2 2 0 2 2 3 4 1 2 3 2 2 1 2 0 1 3 2 3 3 2 4 3 1 5 5 2 2 1 1 4 4 4 3 0 4 6 2 1 4 3 2 3 5 7 6 4 4 9 11 10 10 8 7 8 8 5 2 5 3 4 8 12 16 20 22 24 24 19 17 17 17
6 8 16 24 24 16 9 7 6 5 3 5 8 4 0 1 1 1 1 2 0 2 4 1 1 3 3 2 2 5 4 1 3 4 2 1 1 3 4 1 1 3 3 2 1 1 3 6 4 3 1 3 3 1 5 4 3 3 4 7 6 3 4 1 6 8 8 9 8 9 13 13 9 5 1 1 8 12 15 19 22 24 26 24 20 18 20 21
5 2 9 22 24 14 6 7 7 6 5 6 7 4 1 1 2 1 1 1 1 1 2 1 2 1 1 2 2 5 6 4 5 4 2 2 1 2 4 2 1 2 3 3 2 1 2 5 1 2 3 4 2 1 2 4 4 3 3 3 4 2 2 3 5 7 9 10 9 11 15 13 10 7 5 8 12 15 18 21 24 27 26 23 21 22 24 24
4 1 4 17 20 12 6 5 4 5 7 5 4 3 1 1 1 1 0 1 2 1 1 1 1 1 0 2 2 2 3 3 4 3 2 3 2 2 3 2 2 4 4 2 2 1 1 3 1 2 4 6 1 1 4 3 3 2 3 2 1 1 3 4 4 5 8 11 11 13 13 9 6 6 6 9 13 18 23 24 26 28 26 23 23 24 26 26
2 2 2 15 16 8 13 16 9 6 7 4 1 2 1 1 2 1 1 1 1 1 1 1 1 1 1 1 1 1 1 1 2 2 2 3 2 2 4 2 4 5 5 2 1 1 1 2 4 3 3 5 2 2 5 5 2 2 3 3 2 2 2 3 4 4 5 9 11 13 13 9 5 3 3 10 16 21 26 27 26 25 25 26 27 27 27 25
3 3 3 17 15 3 8 17 10 4 4 3 2 2 1 1 2 2 1 2 1 0 1 1 1 1 1 1 0 1 1 1 1 1 1 2 3 3 4 3 4 5 4 3 0 2 2 1 5 7 6 6 4 3 3 4 2 4 6 4 3 3 3 5 5 3 1 6 9 12 16 12 3 3 3 13 20 25 28 28 24 24 27 29 28 28 28 25
4 3 5 16 10 5 7 7 3 3 3 2 2 2 0 0 1 2 2 0 1 1 0 0 0 0 1 1 1 1 1 1 0 1 1 2 4 3 3 3 4 4 3 2 1 2 2 2 4 6 7 6 2 4 1 1 3 3 2 2 1 0 2 5 9 8 6 8 9 12 17 12 2 3 10 19 23 27 27 24 23 25 28 28 28 29 29 27
3 2 7 15 6 5 9 6 1 4 3 1 0 1 1 1 1 1 1 1 1 1 1 0 0 1 1 1 1 1 1 1 1 1 1 1 2 3 4 5 5 4 2 1 1 1 1 2 4 6 6 3 3 4 2 3 4 2 2 3 2 1 1 4 7 7 7 10 10 11 14 11 2 6 18 24 27 26 22 23 28 27 25 26 29 30 28 27
1 2 6 16 9 1 4 5 2 2 2 2 1 2 1 0 1 1 0 0 0 1 1 1 1 0 0 0 1 1 2 1 0 2 2 1 2 3 4 6 5 3 2 2 3 3 2 2 4 7 7 5 2 1 1 1 3 6 3 3 3 1 1 4 5 4 5 10 12 11 13 13 12 17 22 25 28 26 23 25 28 26 25 27 29 28 27 28
2 1 2 16 20 11 4 1 3 4 3 2 2 2 1 1 1 2 0 1 0 1 0 1 0 0 1 1 1 1 2 2 1 1 2 1 1 2 3 6 5 3 3 3 3 4 2 2 4 5 6 7 8 7 7 7 8 7 5 1 1 2 0 4 6 6 7 11 12 11 14 19 23 25 25 26 26 26 28 28 26 25 27 29 29 27 26 27
2 3 2 7 14 10 3 1 2 4 3 3 3 1 1 2 1 1 1 1 1 1 1 1 0 0 1 0 1 1 0 1 1 1 2 1 1 1 2 4 3 3 4 3 3 2 1 1 3 4 5 7 9 12 13 12 11 10 12 11 3 2 1 3 5 7 11 14 13 12 16 26 30 27 26 26 25 27 29 30 29 28 29 30 30 29 28 27
1 2 1 1 3 3 3 3 3 2 2 1 1 1 0 1 1 1 1 0 1 0 1 1 1 1 1 2 2 1 2 2 1 1 1 1 1 1 1 2 2 5 6 3 3 3 0 1 3 4 8 10 13 17 16 12 11 13 16 14 7 0 1 2 5 9 13 12 12 16 22 27 28 27 27 25 25 29 31 30 30 29 29 29 29 31 32 31
2 2 1 1 1 1 1 2 2 3 3 2 1 1 1 1 1 0 1 0 1 0 1 1 2 3 1 1 2 2 4 4 2 1 0 1 2 1 1 0 2 6 5 2 4 3 1 1 2 2 8 12 14 15 14 11 12 12 13 13 7 2 2 5 9 12 13 11 15 23 29 28 26 26 27 25 27 32 32 31 30 30 30 31 31 33 33 30
2 3 0 2 2 2 1 2 1 2 3 3 2 1 1 2 1 0 1 1 1 1 0 1 3 4 1 0 0 2 2 3 2 1 1 0 2 1 1 1 0 3 4 3 3 1 1 3 4 2 9 13 11 10 10 13 14 11 7 5 4 4 7 9 11 14 15 16 19 25 29 28 23 22 25 27 30 30 29 29 30 31 33 33 33 34 31 28
2 3 2 2 3 2 1 1 0 1 2 2 1 1 1 1 1 1 1 1 1 1 1 2 3 3 2 1 0 2 3 2 4 4 2 1 1 0 1 1 1 3 5 3 2 2 3 5 4 2 6 9 8 9 13 14 11 6 2 1 5 10 10 8 10 14 15 17 21 25 25 22 18 20 26 30 29 28 29 31 32 32 34 35 34 33 29 26
4 5 6 5 4 2 2 1 1 1 1 1 1 1 1 1 1 1 1 0 1 2 2 2 2 1 2 2 1 2 2 3 5 4 1 1 1 1 1 1 2 3 3 3 2 3 5 4 1 2 4 6 8 15 21 16 2 4 2 5 9 13 12 10 9 11 14 20 25 25 20 17 17 23 30 32 31 32 33 33 32 31 34 36 33 30 28 28
7 5 4 5 3 2 2 1 1 1 2 1 1 2 1 0 1 1 1 1 1 1 1 1 1 1 0 2 2 2 2 2 1 3 3 3 5 5 4 4 4 3 1 1 1 2 3 4 4 4 4 8 12 17 20 14 2 3 2 6 10 13 16 16 13 14 18 19 19 18 17 18 23 29 33 34 34 33 31 29 29 30 32 34 30 27 28 31
Wind_Direction
87 98 95 88 82 70 57 47 49 51 51 55 53 48 41 39 50 75 78 70 59 47 54 72 93 111 122 133 118 101 73 65 62 54 52 26 1 1 357 355 349 342 343 348 0 2 315 321 8 15 169 175 355 21 349 26 13 247 232 261 268 285 321 354 342 5 338 333 357 357 11 342 330 347 335 315 235 297 331 355 5 354 1 1 360 358 351 350
100 100 94 89 79 61 51 49 53 53 51 51 46 39 34 38 59 89 87 72 54 40 47 52 62 102 132 145 152 158 119 66 60 51 33 9 2 360 354 355 350 342 338 343 359 3 349 347 0 359 234 193 3 1 241 11 328 264 234 265 280 353 10 18 4 13 357 329 332 338 5 335 336 343 340 343 342 3 4 2 8 6 10 11 8 8 9 13
106 102 96 86 70 54 54 54 57 54 48 43 36 30 26 36 68 101 94 68 39 29 32 27 22 10 167 176 201 187 191 209 45 29 10 2 359 356 350 348 347 344 335 334 347 353 358 358 358 348 310 87 29 1 197 351 326 321 288 269 341 14 17 43 20 25 15 325 323 324 319 324 359 348 342 349 345 15 19 4 6 10 9 8 10 13 15 21
108 106 96 78 61 55 57 55 54 47 39 28 22 19 18 36 86 115 105 57 24 17 18 13 9 10 44 257 228 191 205 229 33 356 353 359 352 351 350 345 345 346 340 334 347 352 9 9 13 9 325 98 63 63 130 19 352 154 261 303 49 356 344 52 43 34 1 314 313 306 307 344 18 14 11 14 6 22 22 12 15 14 11 12 14 16 19 25
110 103 87 69 58 57 57 51 48 35 25 12 8 12 15 54 113 124 103 43 18 15 17 11 21 64 51 7 223 187 200 216 12 343 347 350 345 346 347 347 349 354 1 357 357 354 23 40 53 46 49 88 88 148 88 50 353 198 123 32 59 339 352 43 43 23 331 290 292 305 349 354 25 48 33 33 35 28 18 16 21 21 22 20 20 22 26 30
107 96 77 65 59 58 54 47 40 24 12 3 4 16 44 98 125 122 87 40 22 20 22 18 44 94 66 55 88 151 172 65 342 336 343 339 338 342 344 352 357 8 18 12 13 12 30 18 138 81 66 93 53 49 75 67 318 266 104 72 67 15 12 20 14 2 305 294 335 343 8 352 68 60 37 44 47 35 26 21 24 30 31 27 28 31 32 33
102 88 72 64 61 58 51 41 29 15 6 6 14 41 87 114 122 109 70 38 25 21 24 24 45 124 90 70 77 82 85 52 345 336 337 331 333 339 350 7 11 28 36 32 25 32 43 21 59 84 130 106 71 62 76 70 317 277 34 69 70 37 13 0 359 348 284 339 357 339 347 25 74 70 43 48 44 34 30 25 32 35 36 36 36 35 34 34
95 80 69 65 64 58 46 34 20 12 10 15 32 64 101 117 111 93 58 39 28 23 23 27 37 125 157 64 79 66 57 12 346 342 333 326 332 343 7 23 31 44 45 44 28 9 50 30 58 216 244 84 109 69 55 268 166 197 21 54 58 349 9 352 355 14 321 0 350 342 52 48 79 87 53 42 30 28 27 26 35 36 40 40 39 37 35 34
88 77 72 68 65 54 41 31 21 18 18 26 48 77 102 105 92 79 53 36 26 24 24 33 40 63 122 74 166 57 29 347 348 347 339 337 348 7 28 36 41 43 42 42 30 21 46 35 46 254 91 88 151 57 3 304 66 66 359 16 0 350 11 359 6 13 348 2 6 28 64 53 79 97 53 34 17 18 19 30 35 33 41 39 39 38 35 35
86 79 75 67 56 44 36 31 25 23 29 38 55 84 93 85 77 69 46 29 23 21 24 42 52 64 76 67 79 59 9 342 357 357 353 358 21 49 37 38 41 40 40 38 34 32 36 39 23 330 79 98 138 50 343 330 50 24 339 25 16 7 31 9 10 2 341 163 35 54 72 53 58 81 45 14 2 5 15 32 34 33 40 37 39 39 36 37
87 80 70 56 45 38 36 34 29 30 42 48 55 76 76 65 68 53 28 21 20 19 28 48 60 63 63 55 66 58 358 353 5 10 16 26 65 58 33 37 39 40 43 46 41 35 47 60 70 132 66 88 118 88 47 0 76 340 306 147 68 123 103 27 26 356 337 132 51 93 89 49 48 55 27 354 349 1 16 31 33 33 36 34 38 39 38 37
84 74 59 50 43 38 38 33 30 37 47 46 48 57 51 54 62 31 21 24 24 21 28 35 39 50 48 52 62 44 2 7 8 18 30 39 58 38 28 38 44 46 47 58 48 40 66 75 43 50 16 250 142 100 110 20 309 8 319 116 96 155 139 30 33 355 332 12 6 175 134 43 40 35 14 354 353 2 21 35 34 32 33 30 34 36 39 37
74 64 53 50 45 43 40 29 37 50 49 41 37 45 57 74 63 34 33 34 32 30 29 25 31 41 28 60 64 24 16 8 10 24 32 33 37 23 32 52 56 54 57 70 66 54 66 55 40 59 26 250 104 88 153 156 237 136 19 66 91 182 134 37 25 340 322 340 347 289 206 50 53 34 12 2 3 9 29 38 33 31 31 28 30 33 38 36
68 59 52 50 50 51 44 45 63 64 53 38 24 39 59 63 50 43 42 38 31 26 32 26 36 64 47 88 80 12 10 9 15 20 19 26 34 30 42 53 59 62 64 73 74 72 73 59 65 103 62 28 108 156 191 171 1 96 260 233 33 357 9 43 36 356 4 344 341 326 277 72 66 35 18 8 8 22 35 37 33 32 29 27 29 30 35 35
65 56 55 54 53 53 55 78 79 61 44 27 23 41 48 51 49 50 36 26 25 28 43 34 30 66 70 85 28 357 4 11 15 11 8 23 32 30 41 53 74 78 69 70 76 79 76 65 60 79 54 57 146 146 207 158 51 24 7 350 12 353 340 13 72 31 17 339 348 346 304 97 74 39 22 14 17 32 40 38 34 32 29 28 28 28 31 32
61 57 59 54 51 51 63 84 67 54 61 66 66 59 48 34 0 18 22 10 29 39 48 31 11 42 73 29 342 352 5 6 6 8 12 27 27 20 38 66 86 96 75 59 66 68 50 59 68 32 36 56 35 334 304 64 37 32 28 351 340 334 334 346 109 67 13 335 5 19 6 140 75 37 22 20 25 33 42 39 32 31 30 29 28 28 28 24
66 67 61 48 38 35 35 48 52 75 90 87 77 68 63 57 45 294 347 12 40 41 44 25 2 88 69 10 349 352 349 348 359 8 14 26 29 30 58 90 74 88 83 42 40 36 13 31 160 205 51 45 14 339 20 29 4 7 11 342 306 306 317 327 356 52 12 349 8 38 77 133 74 36 27 25 26 31 39 35 29 30 28 29 28 27 26 21
83 76 57 44 36 33 29 50 91 115 110 92 74 66 65 62 63 65 58 62 48 8 33 16 7 123 52 6 352 324 316 331 358 8 11 14 22 34 46 55 20 309 254 10 29 9 348 346 207 48 40 32 18 18 41 21 330 326 333 325 312 309 307 313 328 21 14 345 342 24 85 124 98 48 39 26 25 34 38 33 28 28 26 27 25 24 24 19
91 74 63 62 60 61 71 93 126 139 130 92 50 33 48 63 65 60 54 59 59 38 45 2 5 106 10 342 324 317 309 313 360 10 10 6 2 25 34 31 25 2 321 11 25 3 337 24 29 33 28 14 16 27 37 358 303 304 306 300 297 302 300 296 307 16 12 320 285 325 339 144 122 63 43 29 31 38 38 36 30 26 24 22 22 22 18 16
91 80 76 72 69 70 80 105 138 151 158 301 325 344 3 81 61 47 39 50 62 53 76 5 351 97 345 322 326 340 334 284 7 16 8 4 346 342 14 0 316 62 44 350 9 353 326 48 43 27 8 354 358 1 356 326 291 289 281 274 283 289 297 297 300 70 36 320 275 163 155 161 146 85 46 30 36 39 34 33 29 23 21 18 19 17 13 17
94 89 84 73 68 69 78 99 126 142 85 331 343 26 74 159 65 89 25 51 62 35 76 71 358 42 320 304 335 347 337 249 8 16 10 7 339 328 358 346 9 53 31 308 293 301 16 54 42 354 344 341 353 338 276 282 260 272 274 283 299 308 308 303 301 114 68 343 290 177 175 185 166 143 78 49 42 42 33 30 26 19 18 16 15 14 12 16
102 101 92 74 68 69 75 85 88 91 78 75 84 83 102 117 103 124 141 98 65 0 73 73 51 40 308 260 350 341 298 334 3 8 6 4 7 21 356 6 51 47 359 337 268 0 55 55 20 353 10 351 25 199 255 264 234 250 286 297 317 333 319 300 259 136 89 331 289 191 219 216 169 163 142 81 59 53 36 27 24 14 14 14 11 12 9 9
109 114 100 71 64 61 66 73 72 77 72 73 80 86 107 105 117 132 112 102 88 340 5 25 48 26 3 53 354 344 27 33 356 359 360 358 18 43 7 27 48 36 3 11 26 55 59 42 24 28 112 269 309 307 306 295 261 313 338 339 330 337 333 306 208 79 307 302 271 238 257 232 174 176 179 138 93 63 40 25 27 17 17 15 11 12 9 6
112 116 98 55 43 29 38 61 59 67 68 71 77 79 110 117 125 129 98 116 93 72 55 35 93 27 20 11 347 348 61 46 342 351 358 1 10 336 20 37 25 35 32 2 17 71 74 51 43 142 215 310 314 1 4 345 349 11 15 354 329 321 317 290 293 315 307 264 234 265 273 244 186 192 189 163 161 92 48 23 26 22 17 14 12 13 9 6
115 106 78 46 23 4 11 59 48 64 69 67 71 72 92 102 178 161 130 142 41 22 48 79 99 24 6 338 352 353 151 50 41 357 355 7 4 307 58 46 351 28 27 329 359 74 70 73 268 305 233 318 338 25 25 348 338 349 67 348 314 308 303 290 300 317 312 272 148 282 296 291 179 190 189 160 163 132 59 25 20 18 14 10 9 8 5 3
123 103 61 37 14 2 26 76 36 63 73 53 56 77 80 63 145 160 161 94 46 355 351 5 356 6 358 342 349 328 184 25 14 2 5 13 6 237 60 354 37 34 354 314 38 85 63 165 205 322 286 342 12 33 35 336 335 350 18 315 294 298 294 295 314 320 312 325 337 180 290 299 240 193 184 166 161 129 53 29 20 13 9 7 3 0 358 357
143 113 36 26 17 20 64 94 33 58 75 40 42 80 89 75 133 151 232 52 45 350 348 353 334 355 359 348 338 312 116 344 321 20 12 5 356 243 28 12 50 50 343 217 88 85 352 341 42 9 355 15 12 11 15 334 330 343 341 303 291 295 292 299 318 280 288 322 281 172 247 287 299 251 163 168 177 137 31 16 15 9 4 0 357 357 356 355
152 95 20 19 22 37 58 70 57 72 80 79 82 84 113 157 158 180 209 73 20 343 0 341 333 355 353 347 357 39 92 322 336 10 348 355 8 302 56 36 25 42 346 267 59 62 302 1 30 7 12 22 354 352 358 303 321 333 320 302 290 290 291 295 295 270 278 324 294 156 143 292 299 320 132 165 191 120 13 6 6 2 1 356 352 351 351 351
92 55 26 15 20 35 42 56 76 92 96 93 107 97 129 147 174 219 68 96 339 347 120 322 340 358 345 338 17 46 9 349 37 339 331 359 14 5 81 43 120 142 333 329 49 42 288 35 32 341 23 14 331 341 21 249 336 319 301 290 275 256 257 268 266 281 257 257 310 337 96 311 303 302 285 175 173 42 4 357 360 359 359 354 348 343 339 339
66 51 25 9 10 12 13 44 60 75 110 99 136 118 102 133 155 68 50 54 326 338 199 354 348 333 342 349 24 25 3 10 346 317 334 0 355 15 90 210 190 154 210 73 63 38 101 79 250 290 35 4 315 326 101 185 294 296 299 305 296 239 214 218 211 287 293 295 321 306 236 315 304 297 325 104 125 98 7 350 355 354 351 346 342 334 327 326
45 30 10 1 4 357 353 25 15 347 161 136 147 107 6 40 64 81 67 12 315 332 338 17 0 346 13 17 7 357 356 349 335 349 12 4 1 18 35 0 326 5 14 36 26 15 107 133 101 162 351 281 277 286 167 199 275 308 334 338 338 321 261 249 232 342 336 315 312 313 315 301 285 298 73 112 141 138 15 355 349 343 341 339 336 328 322 321
40 24 10 10 12 4 9 176 319 185 163 132 114 100 98 59 40 60 33 317 308 353 15 10 346 2 10 4 335 339 335 352 6 24 18 15 33 29 35 29 335 328 23 18 344 352 86 131 44 157 203 278 301 308 162 171 342 4 3 358 359 354 352 345 338 342 320 296 300 317 327 300 280 323 108 137 154 153 8 354 339 333 332 334 331 322 318 322
49 37 28 33 36 31 40 117 145 125 143 127 100 68 77 74 51 55 273 309 354 17 17 304 316 330 319 307 1 344 305 356 359 27 52 10 63 68 77 46 359 303 8 0 332 348 37 130 46 56 152 309 346 356 3 344 7 20 13 10 14 5 348 329 328 328 306 296 302 313 323 303 296 336 131 144 142 162 330 337 330 329 328 328 325 317 318 327
51 45 45 46 44 42 48 83 109 98 113 119 94 50 65 72 73 216 263 277 330 349 354 331 316 311 313 9 359 331 285 73 4 359 4 12 45 43 52 36 20 351 315 347 357 350 345 335 39 30 347 348 14 23 354 316 354 42 27 22 29 13 334 304 311 313 301 300 303 304 308 303 312 354 130 145 146 291 319 334 339 340 337 333 331 329 331 330
44 42 43 42 37 35 43 69 93 88 98 97 70 54 73 88 233 206 243 289 330 335 325 261 305 300 85 52 350 341 319 35 21 15 21 33 41 23 13 16 12 0 319 347 22 342 322 291 22 19 273 354 12 18 269 297 319 74 36 30 15 344 294 268 281 291 293 294 296 291 277 291 318 86 115 151 229 316 332 341 344 344 343 340 335 332 331 327
33 37 36 32 25 22 27 41 91 125 122 83 73 59 81 167 229 175 119 351 20 328 306 272 314 334 2 331 349 49 221 254 355 2 50 58 48 27 14 347 6 359 346 357 6 343 321 309 5 6 213 48 26 3 21 342 319 358 0 0 347 303 251 265 285 289 294 286 282 290 291 297 318 89 132 179 301 334 342 342 342 343 342 338 331 327 325 324
21 38 35 25 16 13 34 64 86 121 113 72 81 80 203 202 14 85 73 22 116 288 311 340 27 354 342 315 341 354 333 306 351 350 33 53 51 29 359 331 56 356 335 312 218 99 306 300 338 357 339 56 74 123 86 59 326 340 6 346 327 261 196 228 296 297 298 283 279 296 298 301 314 316 207 301 332 341 342 340 342 343 339 331 324 322 321 321
2 55 41 21 11 9 41 74 68 88 94 65 79 108 147 58 39 80 125 105 182 255 335 37 26 355 316 309 343 344 332 340 352 354 22 15 35 32 348 346 105 20 350 296 278 83 258 282 316 120 316 341 123 172 78 76 32 41 67 354 336 314 265 305 313 305 300 294 291 298 296 296 307 315 328 337 338 339 337 339 341 338 332 326 323 322 319 318
0 92 33 8 7 17 53 80 59 61 79 71 79 113 115 88 96 125 179 142 182 235 20 69 357 16 179 302 326 338 341 357 345 342 24 4 7 44 18 347 300 357 7 300 303 31 226 282 344 149 291 316 357 344 330 21 51 89 114 84 34 327 286 303 317 298 298 300 302 308 302 295 313 332 344 341 339 340 339 339 337 331 327 325 323 320 318 320
5 93 25 355 356 26 64 69 65 44 61 75 109 95 75 138 122 94 336 325 202 241 15 154 226 347 339 277 282 327 350 352 313 336 31 7 349 54 60 29 317 335 345 299 295 340 235 248 306 295 293 307 335 30 341 334 348 346 355 7 12 327 279 275 263 247 292 302 306 311 301 296 329 12 11 344 340 342 341 336 332 328 325 322 320 318 319 321
28 98 346 344 342 301 58 56 52 32 61 79 92 88 77 163 141 115 72 325 290 275 353 179 189 4 335 295 178 186 306 304 264 327 29 22 17 35 63 43 327 323 323 294 330 354 324 250 297 316 331 326 349 53 312 301 344 354 343 346 355 336 326 314 289 249 259 290 296 300 294 300 346 114 2 345 341 338 337 334 329 326 322 318 318 320 322 322
45 92 329 343 8 93 69 52 38 28 80 75 57 95 98 169 147 129 129 238 275 239 323 131 121 309 229 287 297 214 283 297 264 35 39 47 33 19 29 18 321 301 307 309 10 2 321 269 284 306 309 308 14 81 51 92 108 102 89 82 76 267 347 329 308 303 297 286 288 289 289 295 109 109 340 341 337 333 335 335 327 323 321 318 319 322 323 322
56 98 354 352 9 94 64 70 20 20 71 142 346 121 333 38 134 141 148 180 231 207 216 172 194 223 193 268 278 236 287 262 207 48 54 95 57 26 1 348 324 297 289 324 10 353 312 304 310 310 300 268 151 124 104 127 135 129 97 89 103 180 299 290 288 304 300 287 294 294 286 282 288 343 334 333 330 330 335 333 325 321 319 320 322 322 322 322
78 154 13 10 15 136 71 85 137 62 100 189 144 93 14 36 100 54 119 178 244 192 175 132 190 251 94 75 275 293 341 339 94 52 54 79 59 47 11 353 347 349 7 17 350 332 358 18 335 332 334 333 341 339 307 236 300 323 351 93 115 111 283 262 263 277 272 278 295 298 284 285 308 326 328 328 328 330 331 327 323 321 321 323 324 322 321 321
60 125 340 18 38 64 82 76 131 127 148 163 100 66 21 88 58 4 30 137 179 211 176 77 109 11 112 148 241 292 341 0 20 32 50 63 55 63 24 2 3 20 24 1 315 308 327 35 6 358 345 330 322 312 313 318 316 316 317 316 121 114 346 297 294 285 281 294 298 285 282 296 310 319 325 329 331 329 327 325 322 322 323 323 323 322 321 320
60 55 318 2 34 55 73 6 66 112 148 142 96 50 15 91 75 325 235 154 150 207 349 39 36 302 157 192 325 208 309 17 28 24 40 27 4 56 8 341 352 18 0 333 310 309 180 111 26 353 286 282 290 289 298 311 307 301 307 311 321 119 133 316 306 288 296 303 294 281 294 304 309 317 326 332 332 327 325 326 324 323 323 322 322 322 321 320
99 74 16 322 22 42 63 41 28 73 137 157 109 104 60 21 12 189 201 211 160 199 347 65 40 0 0 358 9 356 329 356 61 88 65 339 310 57 313 292 325 346 337 322 335 352 204 215 8 321 269 264 277 285 291 296 291 296 306 309 311 150 183 279 283 292 308 308 294 300 309 308 309 318 328 333 332 327 324 325 324 322 320 320 320 319 319 320
62 133 245 288 53 53 49 39 34 60 69 75 101 108 69 27 16 143 203 179 142 201 250 114 52 34 11 338 17 10 337 345 30 76 98 323 324 6 97 126 340 336 337 12 8 7 186 289 4 298 283 286 284 285 290 294 292 298 305 303 301 273 266 290 288 297 311 302 292 305 310 308 309 319 327 331 330 326 323 323 322 320 319 319 319 319 318 319
57 112 176 335 79 132 347 358 41 69 60 67 93 99 105 107 92 156 216 208 109 82 1 10 18 26 62 211 42 41 359 347 344 298 212 67 356 0 59 110 63 353 17 39 15 16 202 344 14 329 297 298 289 279 292 304 304 309 312 298 297 299 298 302 300 302 303 290 288 302 306 304 310 321 325 327 327 324 322 321 321 320 320 320 320 319 319 320
178 151 147 67 85 97 21 343 266 97 63 47 65 95 130 152 154 175 198 227 28 50 27 357 358 21 85 143 203 44 38 333 286 274 230 157 320 233 86 71 307 12 31 30 359 341 346 359 24 5 300 294 297 303 309 313 310 310 346 46 326 320 316 312 305 304 305 299 299 304 305 304 316 325 323 324 325 324 323 323 323 321 320 321 319 318 319 322
111 132 142 118 84 6 358 41 354 66 66 10 61 143 192 185 169 197 203 203 11 17 358 339 351 49 112 134 129 48 24 291 280 297 329 68 29 66 88 57 314 342 21 26 345 346 1 359 8 5 320 304 331 329 319 320 330 143 67 13 350 340 330 319 311 306 310 311 309 310 312 316 326 327 324 324 326 326 325 325 324 321 319 319 318 318 320 322
105 106 125 106 83 350 354 47 325 76 84 27 72 142 212 150 151 205 160 121 28 25 9 311 217 191 121 89 80 30 338 312 13 42 56 88 89 78 75 78 61 29 37 76 0 9 18 351 336 357 325 307 334 331 313 310 356 127 68 26 4 344 326 317 318 316 314 314 311 312 318 324 327 327 325 324 325 325 325 323 320 317 316 315 316 319 320 320